Weather History for Cincinnati, OH

Change the Weather History Date:

Sunday, June 1, 2014

  Actual Average Record
Temperature  
Mean Temperature 70 °F -  
Max Temperature 87 °F 79 °F 93 °F (1988)
Min Temperature 53 °F 57 °F 39 °F (1966)
Cooling Degree Days 4    
Growing Degree Days 20 (Base 50)    
Moisture  
Dew Point 60 °F    
Average Humidity 81    
Maximum Humidity 100    
Minimum Humidity 43    
Precipitation  
Precipitation 0.20 in - - ()
Sea Level Pressure  
Sea Level Pressure 30.12 in    
Wind  
Wind Speed 1 mph (SSW)    
Max Wind Speed 17 mph    
Max Gust Speed 25 mph    
Visibility 8 miles    
Events Fog , Rain , Thunderstorm    
Averages and records for this station are not official NWS values.
T = Trace of Precipitation, MM = Missing Value Source: NWS Daily Summary

Daily Weather History Graph

Daily Weather History Graph

Search for Another Location

Airport:

Trip Planner

Search our weather history database for the weather conditions in past years. The results will help you decide how hot, cold, wet, or windy it might be!

Date:

Astronomy

Jun. 01, 2014 Rise Set
Actual Time 6:13 AM EDT 8:57 PM EDT
Civil Twilight 5:42 AM EDT 9:29 PM EDT
Nautical Twilight 5:02 AM EDT 10:08 PM EDT
Astronomical Twilight 4:17 AM EDT 10:53 PM EDT
Moon 9:43 AM EDT (6/1) 11:53 PM EDT (6/1)
Length of Visible Light 15h 47m
Length of Day
14h 44m
Waxing Crescent, 14% of the Moon is Illuminated
Jun 1
Waxing Crescent
Jun 5
First Quarter
Jun 13
Full
Jun 19
Last Quarter
Jun 27
New

Hourly Weather History & Observations

Time (EDT) Temp. Heat Index Dew Point Humidity Pressure Visibility Wind Dir Wind Speed Gust Speed Precip Events Conditions
12:53 AM 60.1 °F - 57.0 °F 90% 30.14 in 10.0 mi Calm Calm - N/A   Clear
1:53 AM 57.9 °F - 55.9 °F 93% 30.14 in 9.0 mi Calm Calm - N/A   Clear
2:53 AM 57.9 °F - 55.9 °F 93% 30.14 in 10.0 mi Calm Calm - N/A   Clear
3:53 AM 55.9 °F - 55.0 °F 97% 30.14 in 8.0 mi Calm Calm - N/A   Clear
4:53 AM 55.9 °F - 54.0 °F 93% 30.14 in 7.0 mi Calm Calm - N/A   Clear
5:21 AM 55.0 °F - 54.0 °F 96% 30.15 in 1.8 mi Calm Calm - N/A   Clear
5:31 AM 55.0 °F - 54.0 °F 96% 30.16 in 3.0 mi Calm Calm - N/A   Clear
5:53 AM 54.0 °F - 53.1 °F 97% 30.15 in 8.0 mi Calm Calm - N/A   Clear
6:05 AM 54.0 °F - 53.1 °F 97% 30.15 in 1.5 mi Calm Calm - N/A   Clear
6:15 AM 54.0 °F - 53.1 °F 97% 30.16 in 0.5 mi Calm Calm - N/A Fog Fog
6:31 AM 55.0 °F - 54.0 °F 96% 30.15 in 0.2 mi Calm Calm - N/A Fog Fog
6:39 AM 55.0 °F - 54.0 °F 96% 30.16 in 1.0 mi Calm Calm - N/A   Clear
6:49 AM 53.6 °F - 53.6 °F 100% 30.16 in 4.0 mi Calm Calm - N/A   Clear
6:53 AM 54.0 °F - 54.0 °F 100% 30.15 in 6.0 mi Calm Calm - N/A   Clear
7:53 AM 60.1 °F - 57.9 °F 93% 30.15 in 10.0 mi Calm Calm - N/A   Clear
8:53 AM 64.9 °F - 60.1 °F 84% 30.16 in 10.0 mi Calm Calm - N/A   Clear
9:53 AM 71.6 °F - 60.8 °F 69% 30.16 in 10.0 mi Calm Calm - N/A   Clear
10:53 AM 75.9 °F - 57.9 °F 54% 30.14 in 10.0 mi SSE 4.6 mph - N/A   Clear
11:53 AM 79.0 °F - 60.1 °F 52% 30.14 in 10.0 mi Calm Calm - N/A   Clear
12:53 PM 82.0 °F 82.7 °F 61.0 °F 49% 30.12 in 10.0 mi South 6.9 mph - N/A   Clear
1:53 PM 84.0 °F 84.5 °F 62.1 °F 47% 30.11 in 10.0 mi South 3.5 mph - N/A   Partly Cloudy
2:53 PM 84.9 °F 84.8 °F 60.1 °F 43% 30.09 in 10.0 mi Variable 6.9 mph - N/A   Clear
3:53 PM 86.0 °F 87.3 °F 64.0 °F 48% 30.06 in 10.0 mi SSW 8.1 mph - N/A   Partly Cloudy
4:53 PM 86.0 °F 88.8 °F 66.9 °F 53% 30.04 in 10.0 mi South 8.1 mph - N/A   Scattered Clouds
5:53 PM 84.0 °F 86.5 °F 66.9 °F 56% 30.03 in 10.0 mi South 8.1 mph - N/A   Scattered Clouds
6:53 PM 81.0 °F 83.8 °F 68.0 °F 65% 30.02 in 10.0 mi South 6.9 mph - N/A   Partly Cloudy
7:53 PM 80.1 °F 82.7 °F 68.0 °F 67% 30.03 in 10.0 mi SW 17.3 mph 25.3 mph 0.00 in Rain , Thunderstorm Thunderstorms and Rain
8:37 PM 73.9 °F - 71.1 °F 91% 30.07 in 10.0 mi NE 3.5 mph - 0.20 in   Overcast
8:53 PM 72.0 °F - 70.0 °F 93% 30.06 in 10.0 mi WSW 3.5 mph - 0.20 in   Mostly Cloudy
9:53 PM 71.6 °F - 71.6 °F 100% 30.08 in 10.0 mi Calm Calm - N/A   Clear
10:53 PM 71.6 °F - 71.6 °F 100% 30.10 in 5.0 mi Calm Calm - N/A   Partly Cloudy
11:53 PM 71.1 °F - 70.0 °F 96% 30.09 in 9.0 mi SSW 3.5 mph - N/A   Clear